Location: Chemnitz
(49.5500°N, 11.5830°E)
Time: 21:06:27
(UTC+01:00)

Envisat - Visible Passes

Search period start: 24 February 2018 00:00
Search period end: 06 March 2018 00:00
Orbit: 764 x 766 km, 98.2° (Epoch: 24 February)

Date Brightness Start Highest point End Pass type
(mag) Time Alt. Az. Time Alt. Az. Time Alt. Az.
24 Feb 3.2 19:44:15 10° S 19:49:19 72° WSW 19:54:26 10° NNW visible
24 Feb 6.0 21:28:12 10° W 21:29:16 11° W 21:30:20 10° WNW visible
25 Feb 3.0 19:07:39 10° SSE 19:12:38 58° ENE 19:17:37 10° N visible
25 Feb 5.3 20:48:07 10° SW 20:52:02 22° W 20:55:58 10° NW visible
26 Feb 3.8 18:31:43 10° ESE 18:36:07 30° ENE 18:40:32 10° N visible
26 Feb 4.1 20:10:10 10° S 20:15:00 44° W 20:19:52 10° NNW visible
27 Feb 3.0 19:33:05 10° SSE 19:38:10 87° WSW 19:43:18 10° NNW visible
27 Feb 5.8 21:15:31 10° WSW 21:17:58 13° W 21:20:25 10° WNW visible
28 Feb 3.2 18:56:41 10° SE 19:01:32 48° ENE 19:06:25 10° N visible
28 Feb 5.0 20:36:30 10° SSW 20:40:47 27° W 20:45:05 10° NW visible
01 Mar 4.0 18:20:58 10° ESE 18:25:06 26° ENE 18:29:13 10° N visible
01 Mar 3.7 19:58:51 10° S 20:03:49 54° W 20:08:49 10° NNW visible
02 Mar 2.9 19:21:58 10° SSE 19:27:02 77° ENE 19:32:08 10° NNW visible
02 Mar 5.6 21:03:28 10° SW 21:06:40 17° W 21:09:53 10° NW visible
03 Mar 3.5 18:45:46 10° SE 18:50:27 39° ENE 18:55:11 10° N visible
03 Mar 4.6 20:25:00 10° SSW 20:29:33 33° W 20:34:08 10° NNW visible
04 Mar 3.3 19:47:35 10° S 19:52:38 66° WSW 19:57:43 10° NNW visible
05 Mar 3.0 19:10:55 10° SSE 19:15:55 63° ENE 19:20:58 10° N visible
05 Mar 5.4 20:51:39 10° SW 20:55:23 20° W 20:59:09 10° NW visible
